Galliano, LA

10:23 AM CST on January 22, 2018 (GMT -0600)
Galliano

Weather History for KGAO - October, 2013

Change the Weather History Date:

Friday, October 18, 2013

  Actual Average (KHUM) Record (KHUM)
Temperature  
Mean Temperature 72 °F -  
Max Temperature 75 °F 79 °F 89 °F (1941)
Min Temperature 68 °F 58 °F 40 °F (1943)
Cooling Degree Days 6    
Growing Degree Days 22 (Base 50)    
Moisture  
Dew Point 65 °F    
Average Humidity 81    
Maximum Humidity 92    
Minimum Humidity 71    
Precipitation  
Precipitation 0.02 in - - ()
Sea Level Pressure  
Sea Level Pressure 29.97 in    
Wind  
Wind Speed 10 mph (NNE)    
Max Wind Speed 15 mph    
Max Gust Speed 18 mph    
Visibility 10 miles    
Events Rain    
Averages and records for this station are not official NWS values.
T = Trace of Precipitation, MM = Missing Value Source: NWS Daily Summary

Daily Weather History Graph

Daily Weather History Graph

Search for Another Location

Airport or City:

Trip Planner

Search our weather history database for the weather conditions in past years. The results will help you decide how hot, cold, wet, or windy it might be!

Date:

Astronomy

Oct. 18, 2013 Rise Set
Actual Time 7:04 AM CDT 6:27 PM CDT
Civil Twilight 6:40 AM CDT 6:51 PM CDT
Nautical Twilight 6:12 AM CDT 7:18 PM CDT
Astronomical Twilight 5:45 AM CDT 7:46 PM CDT
Moon 6:19 PM CDT (10/18) 6:40 AM CDT (10/18)
Length of Visible Light 12h 10m
Length of Day
11h 22m
Full, 100% of the Moon is Illuminated
Oct 18
Full
Oct 18
Full
Oct 26
Last Quarter
Nov 3
New
Nov 9
First Quarter

Hourly Weather History & Observations

Time (CDT) Temp. Dew Point Humidity Pressure Visibility Wind Dir Wind Speed Gust Speed Precip Events Conditions
12:15 AM 71.2 °F 66.6 °F 85% 29.96 in 10.0 mi North 13.8 mph - N/A   Overcast
12:35 AM 71.1 °F 66.2 °F 85% 29.96 in 10.0 mi NNW 15.0 mph - N/A   Overcast
12:55 AM 70.9 °F 66.2 °F 85% 29.96 in 10.0 mi NNW 12.7 mph - N/A   Overcast
1:15 AM 70.7 °F 65.8 °F 85% 29.96 in 10.0 mi North 11.5 mph - N/A   Overcast
1:35 AM 70.5 °F 66.0 °F 86% 29.96 in 10.0 mi North 11.5 mph - N/A   Overcast
1:55 AM 70.0 °F 65.7 °F 86% 29.97 in 10.0 mi North 13.8 mph - N/A   Overcast
2:15 AM 69.6 °F 65.3 °F 86% 29.97 in 10.0 mi North 13.8 mph - N/A   Overcast
2:35 AM 69.4 °F 64.8 °F 85% 29.97 in 10.0 mi North 12.7 mph - N/A   Overcast
2:55 AM 69.3 °F 64.6 °F 85% 29.97 in 10.0 mi North 9.2 mph - N/A   Overcast
3:15 AM 69.1 °F 64.4 °F 85% 29.97 in 10.0 mi North 12.7 mph 18.4 mph N/A   Overcast
3:35 AM 69.1 °F 64.0 °F 84% 29.97 in 10.0 mi North 13.8 mph - N/A   Overcast
3:55 AM 68.9 °F 64.2 °F 85% 29.97 in 10.0 mi North 9.2 mph - N/A   Overcast
4:15 AM 68.9 °F 64.4 °F 86% 29.97 in 10.0 mi North 8.1 mph - N/A   Overcast
4:35 AM 68.9 °F 64.4 °F 86% 29.97 in 10.0 mi North 10.4 mph - N/A   Overcast
4:55 AM 68.9 °F 64.4 °F 86% 29.97 in 10.0 mi North 10.4 mph - N/A   Overcast
5:15 AM 68.9 °F 64.6 °F 86% 29.97 in 10.0 mi North 11.5 mph - N/A   Overcast
5:35 AM 68.9 °F 64.6 °F 86% 29.97 in 10.0 mi North 8.1 mph - N/A   Overcast
5:55 AM 68.5 °F 64.4 °F 87% 29.98 in 10.0 mi North 9.2 mph - N/A   Overcast
6:15 AM 68.7 °F 64.4 °F 86% 29.99 in 10.0 mi NNW 10.4 mph - N/A   Overcast
6:35 AM 68.7 °F 64.6 °F 87% 29.99 in 10.0 mi North 5.8 mph - N/A   Overcast
6:55 AM 68.5 °F 64.4 °F 87% 29.99 in 10.0 mi North 12.7 mph - N/A   Overcast
7:15 AM 68.4 °F 64.2 °F 87% 30.01 in 10.0 mi NNW 6.9 mph - N/A   Overcast
7:35 AM 68.4 °F 64.0 °F 86% 30.01 in 10.0 mi North 8.1 mph - N/A   Overcast
7:55 AM 68.4 °F 64.6 °F 88% 30.02 in 10.0 mi North 9.2 mph - N/A   Light Drizzle
8:15 AM 69.1 °F 64.6 °F 86% 30.02 in 10.0 mi North 8.1 mph - N/A   Overcast
8:35 AM 69.6 °F 64.6 °F 84% 30.02 in 10.0 mi North 13.8 mph - N/A   Overcast
8:55 AM 69.4 °F 64.0 °F 83% 30.02 in 10.0 mi North 12.7 mph - N/A   Overcast
9:15 AM 69.4 °F 63.9 °F 82% 30.03 in 10.0 mi North 12.7 mph - N/A   Overcast
9:35 AM 70.7 °F 64.2 °F 80% 30.03 in 10.0 mi North 11.5 mph - N/A   Overcast
9:55 AM 71.8 °F 64.6 °F 78% 30.03 in 10.0 mi North 10.4 mph - N/A   Overcast
10:15 AM 71.2 °F 64.2 °F 78% 30.03 in 10.0 mi North 10.4 mph - N/A   Overcast
10:35 AM 73.6 °F 64.6 °F 73% 30.02 in 10.0 mi North 15.0 mph - N/A   Mostly Cloudy
10:55 AM 73.2 °F 64.6 °F 74% 30.02 in 10.0 mi North 9.2 mph - N/A   Mostly Cloudy
11:15 AM 73.8 °F 65.1 °F 74% 30.02 in 10.0 mi NNE 11.5 mph 16.1 mph N/A   Overcast
11:35 AM 72.9 °F 65.1 °F 77% 30.02 in 10.0 mi North 8.1 mph - N/A   Overcast
11:55 AM 73.8 °F 65.5 °F 75% 30.01 in 10.0 mi NNE 9.2 mph - N/A   Overcast
12:15 PM 73.4 °F 65.5 °F 76% 30.01 in 10.0 mi NNE 9.2 mph - N/A   Overcast
12:35 PM 73.9 °F 65.7 °F 75% 30.00 in 10.0 mi NNE 9.2 mph - N/A   Overcast
12:55 PM 74.5 °F 65.7 °F 74% 29.99 in 10.0 mi NNE 9.2 mph - N/A   Overcast
1:15 PM 74.5 °F 65.8 °F 74% 29.98 in 10.0 mi NNE 10.4 mph - N/A   Overcast
1:35 PM 74.5 °F 65.8 °F 74% 29.97 in 10.0 mi NE 6.9 mph - N/A   Mostly Cloudy
1:55 PM 75.2 °F 65.5 °F 72% 29.96 in 10.0 mi NE 9.2 mph - N/A   Scattered Clouds
2:15 PM 74.7 °F 65.5 °F 73% 29.95 in 10.0 mi NE 5.8 mph - N/A   Scattered Clouds
2:35 PM 74.8 °F 65.3 °F 72% 29.95 in 10.0 mi NE 9.2 mph - N/A   Mostly Cloudy
2:55 PM 74.5 °F 65.3 °F 73% 29.95 in 10.0 mi NE 5.8 mph - N/A   Scattered Clouds
3:15 PM 74.7 °F 65.5 °F 73% 29.93 in 10.0 mi ENE 8.1 mph - N/A   Clear
3:35 PM 74.8 °F 65.1 °F 72% 29.94 in 10.0 mi NE 5.8 mph - N/A   Clear
3:55 PM 75.2 °F 65.3 °F 71% 29.94 in 10.0 mi ENE 3.5 mph - N/A   Scattered Clouds
4:15 PM 74.8 °F 65.7 °F 73% 29.94 in 10.0 mi NNE 3.5 mph - N/A   Scattered Clouds
4:35 PM 74.5 °F 65.8 °F 74% 29.94 in 10.0 mi NNE 6.9 mph - N/A   Scattered Clouds
4:55 PM 73.9 °F 66.2 °F 77% 29.94 in 10.0 mi NNE 5.8 mph - N/A   Clear
5:15 PM 73.8 °F 66.4 °F 78% 29.93 in 10.0 mi NNE 4.6 mph - N/A   Clear
5:35 PM 73.6 °F 66.2 °F 78% 29.93 in 10.0 mi NE 3.5 mph - N/A   Clear
5:55 PM 73.4 °F 66.2 °F 78% 29.93 in 10.0 mi NNE 4.6 mph - N/A   Clear
6:15 PM 72.9 °F 66.2 °F 80% 29.93 in 10.0 mi NE 5.8 mph - N/A   Clear
6:35 PM 72.7 °F 66.2 °F 80% 29.94 in 10.0 mi NE 3.5 mph - N/A   Scattered Clouds
6:55 PM 72.9 °F 66.2 °F 80% 29.95 in 10.0 mi NNE 3.5 mph - N/A   Mostly Cloudy
7:15 PM 72.7 °F 66.2 °F 80% 29.94 in 10.0 mi NE 3.5 mph - N/A   Scattered Clouds
7:35 PM 72.5 °F 66.2 °F 81% 29.95 in 10.0 mi Calm Calm - N/A   Clear
7:55 PM 72.3 °F 66.2 °F 81% 29.95 in 10.0 mi NNE 4.6 mph - N/A   Scattered Clouds
8:15 PM 72.5 °F 66.2 °F 81% 29.96 in 10.0 mi NNE 4.6 mph - N/A   Mostly Cloudy
8:35 PM 72.5 °F 65.8 °F 80% 29.96 in 10.0 mi North 5.8 mph - N/A   Overcast
8:55 PM 72.9 °F 65.7 °F 78% 29.97 in 10.0 mi NNE 5.8 mph - N/A   Overcast
9:15 PM 73.0 °F 65.5 °F 77% 29.98 in 10.0 mi North 6.9 mph - N/A   Overcast
9:35 PM 73.0 °F 64.9 °F 76% 29.97 in 10.0 mi North 8.1 mph - N/A   Mostly Cloudy
9:55 PM 71.8 °F 65.8 °F 81% 29.99 in 10.0 mi Calm Calm - N/A   Scattered Clouds
10:15 PM 71.8 °F 66.0 °F 82% 29.99 in 10.0 mi Calm Calm - N/A   Mostly Cloudy
10:35 PM 71.8 °F 66.2 °F 83% 29.98 in 10.0 mi North 5.8 mph - N/A Rain Light Rain
10:55 PM 71.8 °F 65.3 °F 80% 29.97 in 10.0 mi NNE 5.8 mph - N/A Rain Light Rain
11:15 PM 71.1 °F 65.3 °F 82% 29.98 in 10.0 mi Calm Calm - N/A Rain Light Rain
11:35 PM 70.7 °F 66.2 °F 86% 29.97 in 10.0 mi NE 3.5 mph - 0.01 in Rain Light Rain
11:55 PM 69.8 °F 67.3 °F 92% 29.94 in 10.0 mi NE 5.8 mph - 0.02 in Rain Light Rain